Temp
67 67 66 66 66 66 66 65 64 64 64 65 65 65 65 65 65 65 65 65 66 67 67 66 67 67 67 62 67 79 80 80 78 78 75 73 68 65 61 65 68 63 66 71 70 69 69
67 67 66 66 66 66 65 65 64 63 63 64 64 65 65 64 64 64 65 65 66 66 66 66 67 67 64 58 79 80 80 79 80 77 75 74 70 72 68 65 64 66 68 68 68 68 68
67 67 66 66 66 65 65 64 63 63 63 63 64 64 64 63 63 63 64 64 65 65 65 66 67 72 66 66 78 78 81 77 78 77 72 76 74 68 68 63 70 68 61 62 64 66 65
66 66 66 66 66 65 65 64 63 63 63 63 64 64 63 63 62 63 63 63 63 64 65 66 66 66 60 77 74 79 80 77 80 79 76 76 75 70 66 68 66 60 58 49 61 64 66
67 67 66 66 65 65 64 64 63 63 62 63 63 62 62 62 62 62 63 63 64 66 66 67 66 63 61 76 72 78 78 75 77 77 75 83 73 66 66 56 51 53 46 51 57 65 64
66 66 66 65 65 65 65 64 63 63 62 62 62 62 61 61 61 62 61 63 66 65 70 74 75 61 69 69 74 77 75 77 73 72 70 67 62 56 54 50 43 48 48 55 53 61 61
66 65 65 65 64 64 65 64 63 63 62 62 62 61 61 61 61 61 59 64 62 60 64 62 66 66 72 74 76 71 77 72 71 66 55 61 53 48 53 56 58 57 56 55 59 65 60
64 64 64 63 63 63 63 63 63 63 62 62 62 61 60 61 60 60 57 61 64 64 55 68 70 71 75 74 67 70 76 64 62 54 58 55 49 59 63 62 61 59 55 54 60 63 61
63 63 62 62 62 62 62 62 62 62 62 61 61 60 60 60 59 59 63 66 71 69 55 64 70 69 70 72 66 67 71 66 60 56 56 50 59 67 64 61 60 58 55 53 55 59 60
63 63 63 62 62 62 61 61 61 61 61 61 60 60 60 59 61 64 65 70 70 68 46 57 63 68 71 69 62 74 73 68 62 57 58 56 66 65 60 60 61 52 61 61 59 52 43
63 62 62 62 62 61 61 61 61 61 61 60 60 59 59 57 58 63 68 70 68 63 38 61 63 75 71 64 65 65 72 66 58 60 58 55 59 58 57 60 63 56 62 58 57 50 44
62 62 62 61 61 61 61 60 60 61 60 60 60 59 59 58 58 66 69 68 63 47 40 57 62 61 60 62 64 65 64 67 65 59 61 57 65 62 62 64 64 62 58 55 51 46 36
62 62 62 62 61 61 61 60 60 61 60 60 59 59 57 66 63 69 68 61 46 38 62 57 58 61 58 57 59 60 56 52 50 44 45 54 58 62 66 56 58 57 48 37 35 33 35
63 63 62 62 61 61 60 60 60 60 60 59 58 58 60 68 66 67 62 53 36 54 57 63 62 60 55 60 58 59 54 49 54 52 46 43 44 57 62 60 52 51 50 38 31 32 42
62 62 61 61 61 60 60 60 60 60 59 58 57 59 60 65 67 64 54 41 45 54 61 57 59 53 53 59 57 56 52 53 56 57 47 46 48 61 62 62 62 50 47 56 43 43 37
62 61 61 61 60 60 60 60 60 60 59 57 49 54 59 68 67 60 48 46 51 61 63 60 50 55 49 54 51 52 51 59 59 62 63 54 48 60 61 61 59 54 55 43 41 33 30
62 61 61 61 60 59 59 60 60 60 58 58 52 51 61 68 64 52 41 46 56 64 63 57 53 52 52 50 53 51 53 60 61 62 62 60 50 53 53 50 52 49 50 48 47 40 33
61 61 61 61 60 59 59 60 60 59 56 53 48 46 63 64 48 46 43 52 57 58 61 58 59 56 53 53 52 52 52 57 61 58 55 60 54 48 53 55 60 59 55 55 43 37 43
61 61 61 60 59 59 59 59 59 58 56 46 42 47 61 60 40 41 49 54 56 56 55 55 53 56 56 50 44 50 51 55 52 53 50 51 49 44 48 48 50 48 54 54 56 45 46
61 61 61 60 59 59 58 58 58 58 57 48 43 40 48 51 49 44 45 46 48 55 54 56 54 55 52 49 52 47 46 52 53 52 55 54 49 47 42 49 51 45 50 54 51 45 47
61 61 61 60 60 59 59 58 58 58 57 48 44 41 43 36 40 41 41 44 44 44 52 53 49 49 45 43 46 43 48 50 52 54 47 45 39 42 41 43 46 50 54 53 50 52 47
60 60 61 61 60 59 59 58 58 57 56 46 41 39 41 38 40 39 41 39 43 46 45 44 42 46 46 40 43 40 44 42 41 45 45 45 34 36 34 40 40 38 44 47 54 55 54
60 60 60 60 60 59 59 58 57 56 54 43 45 47 47 43 37 35 37 42 43 46 47 49 47 44 42 45 48 47 46 47 46 42 40 39 37 34 29 40 37 31 42 48 52 58 57
59 59 59 60 60 59 59 59 58 57 54 46 45 43 38 37 38 39 43 44 42 44 40 46 48 43 48 51 49 47 44 45 44 43 44 38 36 36 29 34 25 43 53 53 52 56 60
59 59 59 60 60 59 58 59 59 57 56 47 47 46 42 36 40 40 42 42 43 44 42 43 47 50 48 45 37 33 35 37 41 45 44 43 38 33 30 31 38 44 50 49 41 41 55
59 59 59 59 59 59 58 58 58 58 56 48 46 47 44 38 39 43 41 41 36 36 38 43 48 51 46 39 34 20 26 32 30 37 46 43 40 35 34 28 25 42 48 52 48 37 45
59 59 59 59 59 58 58 58 58 57 57 51 46 49 42 38 43 43 39 40 43 42 38 42 41 41 43 34 30 26 27 36 27 30 31 31 31 30 31 30 34 46 51 50 35 35 43
58 59 59 59 59 58 58 58 58 57 57 50 47 49 43 40 44 47 47 42 42 42 36 41 39 39 34 30 29 27 26 31 31 33 31 30 28 27 28 27 24 47 47 40 42 43 44
58 58 58 58 58 58 58 58 57 57 57 55 46 51 51 43 43 50 51 52 50 49 43 42 41 40 42 33 32 31 27 29 31 26 39 27 35 31 32 34 45 49 48 50 47 46 46
MSLP
1020.43 1020.23 1020.06 1019.80 1019.57 1019.38 1019.23 1019.11 1018.97 1018.84 1018.70 1018.46 1018.21 1018.04 1017.84 1017.64 1017.42 1017.17 1016.91 1016.67 1016.42 1016.19 1015.97 1015.86 1015.81 1015.71 1015.43 1015.19 1013.93 1013.38 1013.37 1013.30 1013.37 1013.35 1013.33 1013.17 1013.15 1013.01 1012.97 1012.75 1012.61 1012.68 1012.82 1012.91 1012.98 1013.05 1013.13
1020.68 1020.45 1020.20 1019.98 1019.74 1019.52 1019.34 1019.20 1019.16 1019.05 1018.84 1018.62 1018.34 1018.15 1017.89 1017.74 1017.56 1017.23 1016.97 1016.69 1016.42 1016.12 1015.89 1015.80 1015.72 1015.67 1015.50 1014.49 1012.93 1013.09 1013.17 1013.11 1013.20 1013.12 1013.01 1012.85 1012.92 1012.71 1012.59 1012.49 1012.53 1012.49 1012.72 1013.01 1013.10 1013.23 1013.29
1020.99 1020.70 1020.38 1020.10 1019.88 1019.67 1019.51 1019.38 1019.21 1019.02 1018.85 1018.64 1018.47 1018.29 1018.05 1017.86 1017.57 1017.26 1016.97 1016.71 1016.44 1016.06 1015.82 1015.71 1015.71 1015.43 1014.89 1013.63 1012.67 1012.87 1012.90 1012.88 1012.99 1013.00 1012.99 1012.62 1012.70 1012.80 1012.44 1012.46 1012.36 1012.62 1013.19 1013.28 1013.21 1013.28 1013.46
1021.26 1020.99 1020.73 1020.42 1020.05 1019.80 1019.61 1019.41 1019.31 1019.15 1019.00 1018.80 1018.60 1018.31 1018.08 1017.88 1017.64 1017.35 1017.00 1016.64 1016.22 1015.92 1015.75 1015.64 1015.67 1015.35 1014.33 1012.82 1012.80 1012.81 1012.80 1012.85 1012.84 1012.77 1012.87 1012.72 1012.71 1012.99 1012.77 1012.55 1012.77 1013.21 1013.60 1013.81 1012.81 1013.20 1013.37
1021.65 1021.34 1021.01 1020.67 1020.42 1020.09 1019.80 1019.55 1019.31 1019.14 1018.95 1018.69 1018.45 1018.28 1018.09 1017.95 1017.72 1017.35 1016.94 1016.40 1015.92 1015.70 1015.62 1015.56 1015.47 1015.16 1013.81 1012.80 1012.74 1012.56 1012.61 1012.74 1012.72 1012.74 1012.75 1012.76 1012.93 1013.17 1013.04 1013.44 1013.84 1013.78 1013.82 1013.61 1013.11 1012.86 1013.27
1022.09 1021.79 1021.47 1021.12 1020.71 1020.37 1020.07 1019.77 1019.52 1019.22 1018.92 1018.68 1018.47 1018.31 1018.14 1017.93 1017.66 1017.32 1016.70 1015.97 1015.60 1015.65 1015.03 1015.16 1014.96 1014.97 1013.36 1012.59 1012.30 1012.40 1012.42 1012.55 1012.72 1012.79 1013.08 1013.14 1013.44 1013.60 1013.85 1014.11 1014.19 1013.79 1013.81 1013.05 1012.78 1012.59 1012.86
1022.57 1022.35 1022.04 1021.66 1021.29 1020.84 1020.35 1019.96 1019.70 1019.43 1019.17 1018.88 1018.58 1018.32 1018.04 1017.75 1017.52 1017.25 1016.64 1015.83 1016.01 1015.99 1015.35 1014.25 1013.59 1013.00 1012.26 1012.28 1012.09 1012.43 1012.41 1012.65 1012.78 1012.99 1013.45 1013.51 1013.91 1013.65 1013.40 1013.43 1012.99 1012.98 1012.99 1012.71 1011.92 1011.30 1012.22
1023.20 1022.86 1022.55 1022.26 1021.93 1021.53 1021.10 1020.61 1020.13 1019.71 1019.34 1018.98 1018.57 1018.19 1017.85 1017.51 1017.23 1017.11 1017.38 1016.73 1015.96 1016.02 1015.11 1013.31 1012.87 1012.59 1011.96 1011.91 1012.14 1012.16 1012.23 1012.87 1013.09 1013.42 1013.61 1013.88 1013.39 1012.79 1012.83 1012.90 1012.87 1012.62 1012.57 1012.16 1011.52 1011.25 1011.89
1023.90 1023.51 1023.18 1022.76 1022.34 1021.94 1021.53 1021.09 1020.66 1020.21 1019.68 1019.15 1018.62 1018.12 1017.65 1017.23 1016.83 1016.78 1016.44 1015.84 1015.36 1015.31 1015.27 1012.66 1011.74 1011.55 1011.58 1011.91 1011.94 1011.62 1011.94 1012.37 1012.72 1013.13 1013.20 1013.14 1012.10 1011.57 1012.13 1012.18 1012.12 1012.14 1012.01 1011.88 1011.90 1011.75 1011.95
1024.31 1023.99 1023.61 1023.20 1022.74 1022.30 1021.83 1021.33 1020.80 1020.25 1019.71 1019.26 1018.88 1018.36 1017.75 1017.14 1017.01 1016.43 1015.97 1015.44 1015.20 1015.28 1015.39 1012.80 1011.70 1011.18 1011.40 1011.83 1011.78 1011.03 1011.16 1011.75 1012.18 1012.20 1012.55 1012.24 1011.27 1011.21 1011.32 1011.41 1011.32 1011.25 1011.15 1011.53 1011.96 1012.51 1012.66
1024.74 1024.44 1024.07 1023.66 1023.17 1022.66 1022.14 1021.57 1020.96 1020.35 1019.81 1019.31 1018.86 1018.30 1017.86 1017.72 1017.42 1016.54 1016.02 1015.36 1015.17 1015.36 1014.94 1012.41 1011.78 1011.22 1011.53 1012.04 1011.59 1011.26 1011.12 1011.56 1011.96 1011.85 1011.94 1011.11 1010.49 1010.48 1010.49 1010.26 1010.50 1010.85 1011.00 1011.60 1012.09 1012.56 1012.97
1025.14 1024.78 1024.44 1024.02 1023.54 1023.01 1022.44 1021.79 1021.13 1020.51 1019.88 1019.23 1018.67 1018.38 1017.85 1017.51 1017.36 1016.16 1015.50 1015.42 1015.91 1015.92 1013.50 1012.01 1011.71 1011.62 1012.19 1012.24 1011.99 1011.83 1011.80 1011.98 1012.05 1012.16 1011.62 1011.29 1010.39 1010.03 1009.63 1009.98 1010.21 1010.78 1011.43 1012.18 1012.81 1013.63 1013.42
1025.38 1025.02 1024.65 1024.24 1023.78 1023.24 1022.69 1022.12 1021.48 1020.76 1019.99 1019.18 1018.42 1017.85 1017.90 1017.22 1016.45 1015.49 1015.41 1016.02 1016.46 1015.67 1012.69 1012.18 1011.68 1011.68 1011.94 1012.04 1012.04 1012.26 1012.44 1012.57 1012.55 1012.66 1012.03 1010.78 1009.95 1009.55 1009.37 1010.16 1010.63 1010.94 1012.08 1013.40 1014.04 1014.35 1012.29
1025.60 1025.14 1024.73 1024.27 1023.75 1023.28 1022.75 1022.20 1021.57 1020.81 1020.04 1019.24 1018.27 1017.22 1016.68 1016.27 1015.83 1015.76 1015.87 1016.73 1016.74 1014.64 1013.23 1012.44 1012.28 1011.88 1012.19 1011.74 1011.53 1011.40 1012.06 1012.54 1012.46 1012.60 1012.12 1011.29 1009.69 1008.94 1008.57 1008.63 1009.34 1010.32 1011.07 1012.38 1013.06 1013.35 1011.93
1025.90 1025.52 1025.11 1024.58 1024.12 1023.60 1022.97 1022.30 1021.48 1020.65 1019.82 1018.98 1017.80 1016.80 1016.55 1015.42 1015.48 1016.01 1016.71 1017.07 1015.72 1014.17 1013.32 1013.01 1012.44 1012.17 1011.89 1011.53 1011.75 1011.31 1011.38 1011.23 1011.18 1011.56 1011.98 1010.59 1008.71 1007.52 1007.09 1007.44 1008.34 1009.72 1010.21 1010.01 1011.34 1011.61 1011.58
1026.09 1025.74 1025.35 1024.96 1024.52 1024.04 1023.45 1022.72 1021.92 1021.01 1019.85 1018.84 1018.55 1017.64 1016.62 1015.37 1015.36 1016.38 1017.62 1016.98 1015.31 1013.94 1013.47 1013.22 1013.33 1012.88 1012.74 1012.32 1012.39 1011.89 1011.24 1010.01 1010.17 1009.86 1009.84 1009.44 1008.73 1007.92 1007.12 1007.62 1007.67 1008.14 1008.84 1010.38 1011.09 1011.52 1010.81
1026.35 1026.00 1025.63 1025.21 1024.75 1024.27 1023.70 1023.00 1022.18 1021.34 1020.13 1018.67 1018.60 1017.90 1016.60 1015.65 1015.83 1017.12 1018.04 1016.99 1015.50 1014.50 1014.11 1013.77 1013.35 1013.29 1013.31 1013.22 1012.87 1012.46 1011.11 1010.31 1009.94 1009.66 1009.73 1008.89 1008.91 1007.44 1007.83 1007.25 1007.02 1008.10 1008.31 1008.85 1009.20 1009.13 1008.50
1026.65 1026.31 1025.90 1025.45 1025.05 1024.61 1024.05 1023.47 1022.78 1021.82 1020.77 1019.76 1019.92 1018.74 1016.68 1016.29 1017.39 1017.62 1017.93 1017.03 1016.24 1015.56 1014.80 1014.05 1013.40 1013.48 1013.42 1013.43 1012.72 1012.27 1011.50 1011.52 1010.83 1010.96 1010.32 1009.23 1008.58 1006.90 1006.69 1006.39 1006.48 1006.52 1006.28 1006.99 1007.42 1007.62 1007.21
1026.95 1026.63 1026.22 1025.81 1025.42 1024.95 1024.43 1023.93 1023.37 1022.72 1022.54 1022.65 1021.66 1019.82 1017.36 1017.23 1018.60 1019.06 1018.40 1017.77 1016.99 1016.09 1015.58 1015.15 1014.78 1014.50 1014.32 1014.01 1013.79 1012.55 1012.32 1012.00 1012.52 1012.62 1012.81 1011.79 1009.61 1008.20 1006.55 1006.75 1006.71 1006.46 1006.66 1006.54 1006.33 1006.35 1005.29
1027.02 1026.75 1026.35 1026.03 1025.68 1025.31 1024.88 1024.38 1023.91 1023.02 1022.72 1022.73 1022.50 1021.34 1019.62 1019.05 1019.39 1019.97 1019.98 1018.94 1017.99 1017.17 1016.36 1015.97 1015.73 1015.43 1015.02 1014.78 1014.58 1013.52 1013.46 1013.00 1013.12 1013.16 1013.74 1013.07 1011.57 1010.56 1009.13 1007.30 1006.80 1006.40 1006.03 1005.72 1005.87 1005.46 1002.81
1026.99 1026.65 1026.42 1026.16 1025.76 1025.46 1025.13 1024.66 1024.22 1023.58 1022.88 1023.05 1022.95 1023.12 1022.97 1022.38 1021.61 1021.96 1021.32 1020.22 1019.25 1018.24 1017.43 1016.96 1016.29 1016.56 1016.94 1015.99 1015.28 1015.13 1014.37 1013.86 1013.84 1013.97 1014.60 1014.57 1013.24 1012.18 1011.06 1010.51 1009.31 1007.42 1004.98 1004.25 1003.86 1002.61 1002.30
1027.17 1026.82 1026.41 1026.16 1026.01 1025.73 1025.37 1024.99 1024.62 1024.13 1023.39 1023.50 1024.02 1024.29 1024.18 1023.90 1023.35 1022.77 1021.74 1020.77 1019.96 1019.23 1019.25 1018.31 1018.01 1017.62 1017.62 1017.32 1017.17 1016.23 1016.06 1015.74 1015.21 1014.68 1014.80 1014.98 1014.56 1014.29 1012.23 1011.66 1010.20 1008.99 1006.65 1005.25 1002.56 1001.39 1000.34
1027.03 1026.80 1026.49 1026.18 1025.93 1025.70 1025.51 1025.25 1024.98 1024.64 1024.11 1024.65 1024.64 1024.55 1024.39 1024.12 1023.85 1023.36 1022.10 1021.21 1020.80 1020.29 1019.47 1019.20 1018.73 1018.11 1017.84 1017.17 1016.77 1016.27 1015.97 1015.62 1015.20 1015.13 1014.91 1014.94 1014.57 1014.19 1012.62 1011.60 1010.76 1008.69 1007.06 1004.59 1002.86 1001.08 1000.14
1026.92 1026.70 1026.46 1026.08 1025.84 1025.59 1025.37 1025.18 1024.99 1024.84 1024.84 1025.29 1025.26 1025.22 1024.95 1023.96 1023.80 1023.23 1022.11 1021.88 1021.29 1020.74 1020.23 1019.61 1018.80 1018.21 1017.86 1017.29 1016.65 1016.19 1015.77 1015.18 1014.53 1013.70 1013.88 1013.75 1013.96 1014.40 1012.66 1011.87 1009.23 1006.19 1005.29 1004.55 1002.86 1001.40 1000.07
1026.76 1026.49 1026.25 1025.97 1025.73 1025.47 1025.25 1025.05 1024.94 1024.80 1024.74 1025.01 1024.96 1025.11 1024.77 1023.85 1023.55 1022.82 1022.29 1021.57 1021.18 1020.71 1020.10 1019.52 1018.50 1018.07 1017.78 1017.54 1017.41 1016.72 1015.72 1014.50 1013.05 1012.39 1012.03 1012.52 1013.27 1013.25 1012.28 1010.30 1007.91 1006.10 1004.42 1003.90 1004.48 1003.18 1002.76
1026.58 1026.26 1025.95 1025.73 1025.51 1025.39 1025.23 1025.03 1024.78 1024.68 1024.62 1024.85 1024.54 1024.53 1024.63 1023.72 1022.52 1022.23 1022.09 1021.70 1021.07 1020.27 1019.78 1018.78 1018.22 1017.77 1017.72 1018.05 1018.31 1017.81 1016.72 1015.78 1014.15 1012.57 1011.53 1012.00 1012.68 1013.20 1011.91 1010.30 1007.75 1005.84 1004.41 1004.54 1004.19 1003.17 1004.10
1026.32 1026.00 1025.70 1025.44 1025.23 1025.05 1024.85 1024.73 1024.57 1024.45 1024.32 1024.59 1024.35 1023.93 1024.08 1023.10 1021.90 1021.78 1021.28 1021.01 1020.47 1019.89 1019.34 1018.84 1018.45 1017.90 1017.86 1018.21 1018.37 1018.00 1016.93 1016.24 1015.30 1013.69 1012.70 1012.77 1012.23 1011.91 1011.03 1009.84 1008.11 1005.28 1004.46 1004.54 1004.93 1006.02 1005.46
1026.03 1025.70 1025.35 1025.13 1024.95 1024.71 1024.54 1024.30 1024.12 1024.09 1023.94 1024.23 1023.99 1023.61 1023.71 1022.43 1020.94 1020.58 1020.24 1020.13 1019.29 1019.31 1019.06 1018.53 1018.65 1017.32 1017.66 1017.99 1017.77 1017.21 1016.69 1015.79 1015.02 1014.02 1013.85 1013.50 1013.27 1012.17 1010.48 1009.46 1007.93 1006.25 1005.65 1006.38 1006.48 1006.28 1006.03
1025.57 1025.36 1025.02 1024.71 1024.47 1024.24 1024.07 1023.79 1023.58 1023.47 1023.38 1023.44 1023.70 1022.70 1022.61 1022.34 1019.93 1019.89 1019.08 1018.45 1018.22 1018.05 1018.26 1018.06 1017.65 1017.03 1016.99 1017.12 1017.08 1016.93 1016.73 1015.74 1014.88 1013.95 1012.56 1012.37 1011.87 1011.03 1010.34 1008.68 1006.85 1006.00 1006.12 1005.75 1005.86 1005.75 1005.01
Wind_Speed
16 15 15 14 13 12 11 11 11 11 11 11 11 10 9 9 8 7 7 7 8 8 8 8 9 8 4 1 5 5 7 7 5 3 5 4 4 4 3 5 4 4 4 3 5 1 5
17 17 17 15 14 13 12 11 11 11 11 11 12 12 12 11 11 12 12 11 10 10 9 9 9 9 1 2 4 8 6 4 6 2 6 3 3 4 5 2 6 1 6 6 5 4 4
18 18 18 18 16 14 13 12 12 12 12 12 12 11 12 12 13 13 13 13 13 13 12 10 7 4 3 9 2 6 5 2 1 3 4 3 3 3 4 1 2 3 3 2 6 6 5
19 19 19 18 18 17 15 13 11 11 12 11 11 13 13 14 14 14 15 15 15 14 14 11 4 2 6 1 2 3 4 4 5 6 2 4 4 3 1 1 1 3 3 2 6 10 6
20 21 20 20 19 18 17 15 14 12 12 12 12 13 14 14 14 15 16 17 15 13 9 9 3 2 7 0 2 6 5 3 6 3 2 4 1 4 2 4 3 2 4 7 4 11 5
19 19 20 20 20 19 18 17 15 15 13 13 12 11 12 12 13 15 19 13 6 10 4 5 5 4 4 4 4 5 3 2 4 4 1 1 1 1 1 4 7 7 5 5 7 10 9
21 21 22 21 21 20 20 19 17 15 14 13 12 10 10 10 11 11 10 5 5 2 3 9 5 5 5 4 3 3 5 2 2 3 6 5 3 9 11 10 7 3 4 6 6 7 9
22 22 22 22 22 22 22 20 19 17 16 15 15 13 12 12 10 8 1 3 2 4 9 12 16 8 2 5 3 6 8 6 5 6 4 2 9 11 10 10 12 12 9 7 7 3 9
22 22 23 23 23 23 24 23 21 21 20 19 17 16 13 11 11 1 2 1 0 4 3 8 6 6 4 4 4 7 11 6 5 6 9 8 9 9 11 9 8 12 8 4 6 2 4
21 22 22 23 23 23 24 23 22 21 20 19 18 18 17 18 4 4 1 2 2 4 4 5 2 4 4 3 6 6 9 7 6 10 8 9 15 13 6 7 7 8 4 5 7 3 5
21 22 22 22 23 24 24 23 23 23 21 20 18 17 15 7 3 3 4 4 3 4 5 3 3 3 4 6 1 2 1 2 6 5 4 10 5 7 8 11 7 7 4 3 3 3 2
20 21 21 21 22 22 22 22 23 24 24 24 22 17 16 3 1 5 4 5 5 6 7 3 4 3 4 4 3 2 2 3 3 5 11 9 4 6 9 2 3 8 4 4 5 3 6
20 20 21 21 21 20 20 22 23 24 24 25 24 22 9 5 3 4 3 4 6 4 4 2 5 5 6 5 5 6 4 4 6 3 6 4 11 4 5 4 2 3 7 2 3 1 12
18 19 18 17 18 20 21 22 23 24 24 25 25 23 5 4 2 5 3 6 1 5 5 6 10 4 6 5 8 10 6 5 8 4 3 6 8 14 10 17 11 12 12 10 9 7 10
19 19 18 18 19 21 22 23 24 26 27 26 21 3 1 5 5 3 5 3 8 5 2 9 8 5 4 5 5 7 10 8 9 18 10 5 10 6 8 8 18 8 13 12 3 3 2
17 18 18 19 19 19 21 23 24 26 29 27 3 3 3 5 5 5 5 5 5 4 8 6 5 6 6 8 5 6 4 6 11 15 20 8 16 12 7 2 5 9 7 4 3 6 8
17 18 19 19 18 18 19 23 26 26 30 24 3 4 4 5 5 5 4 6 5 9 9 5 5 10 6 5 9 8 8 8 4 8 9 16 8 15 2 6 16 5 9 5 5 8 8
17 18 19 19 18 19 20 22 24 26 28 10 5 4 5 4 4 2 3 3 9 11 9 10 12 12 13 12 19 18 21 9 15 6 12 9 12 20 28 10 11 16 13 23 9 5 8
17 17 18 19 18 18 19 20 20 20 16 4 4 3 5 6 1 3 8 9 13 7 8 7 6 7 9 8 11 6 10 14 16 17 16 9 8 12 13 3 2 7 13 8 19 2 18
14 16 16 17 16 16 16 18 18 21 18 4 3 5 6 5 2 4 6 7 6 12 9 12 11 10 10 13 13 11 14 8 16 14 17 10 7 16 17 18 7 8 12 19 15 13 25
13 13 15 16 15 15 15 16 17 18 21 3 3 2 2 5 6 8 4 5 11 9 5 8 7 12 15 10 14 13 16 19 9 14 5 6 8 11 21 23 20 21 21 27 26 30 23
14 14 14 15 16 16 14 13 14 15 21 4 3 4 5 4 6 6 6 5 12 8 12 6 14 16 14 11 14 15 13 9 8 3 6 2 7 16 25 23 25 27 29 26 27 31 31
13 14 14 14 13 13 13 13 11 12 10 3 4 4 3 3 3 5 5 4 16 17 5 15 14 15 14 16 9 8 8 11 13 13 15 6 4 4 12 20 18 21 18 27 25 24 22
14 14 14 14 13 13 11 11 12 10 5 2 3 0 2 5 4 6 11 16 17 14 15 15 17 14 7 9 8 9 9 12 14 19 16 16 14 7 9 11 15 14 16 22 24 29 27
14 14 14 15 14 13 12 12 12 9 7 1 1 1 3 6 5 14 14 12 14 14 12 12 21 9 5 4 5 8 12 12 11 21 20 18 12 6 7 12 17 21 13 17 13 20 27
15 15 15 15 15 14 13 13 12 11 8 1 3 3 3 5 7 14 7 8 12 14 15 10 5 12 6 2 3 4 6 13 7 10 7 0 11 10 11 10 5 12 12 6 13 16 20
15 15 16 16 15 14 14 14 14 13 12 3 4 2 2 9 12 12 12 9 8 10 9 13 5 4 2 5 8 8 11 7 13 17 14 3 5 14 14 13 8 17 15 8 4 9 18
17 17 16 17 17 16 17 16 14 14 14 4 5 3 4 7 12 18 20 17 14 10 12 11 9 6 2 3 4 5 4 4 5 5 10 9 5 5 5 6 10 9 7 8 5 9 15
17 17 17 18 18 17 17 16 15 16 15 11 5 5 5 8 13 16 21 23 18 18 14 10 14 13 4 4 3 3 4 5 15 17 7 7 10 6 8 8 17 21 23 6 4 13 18
Wind_Direction
37 32 27 23 17 18 16 13 13 10 7 5 7 7 8 2 353 345 337 331 323 319 323 324 320 318 325 218 249 193 211 248 270 251 249 263 226 195 240 208 171 196 209 144 116 300 294
38 36 33 30 24 18 14 13 10 3 0 359 360 358 1 354 347 345 337 330 320 317 317 313 313 312 207 273 153 164 207 263 253 277 287 247 259 240 245 247 152 292 160 157 156 208 265
35 33 33 32 31 29 23 14 11 7 360 356 352 351 353 348 345 341 333 325 317 316 306 300 306 303 304 241 170 160 188 220 202 263 310 283 357 352 326 346 208 144 141 195 200 196 225
41 37 34 31 31 32 31 27 15 8 1 353 347 349 348 344 340 334 327 319 315 308 302 292 286 321 247 355 338 170 246 237 221 261 236 304 334 282 227 213 33 166 126 202 247 171 229
42 41 36 34 32 30 31 29 25 17 5 358 352 346 342 335 332 329 321 311 301 299 275 289 296 181 272 96 188 216 209 239 200 226 255 251 314 220 17 109 24 273 223 218 307 188 145
39 37 37 35 31 30 29 28 25 19 13 3 355 345 335 330 330 329 320 290 284 327 255 237 261 7 251 239 157 158 212 272 207 198 223 256 197 133 43 108 207 206 225 235 206 217 178
33 31 29 25 24 25 26 23 20 17 12 4 354 342 333 328 328 338 354 1 12 334 273 204 194 228 152 107 108 220 174 187 266 167 191 216 144 210 210 209 222 224 210 235 263 237 165
30 26 26 25 23 24 23 20 18 15 11 5 2 347 337 330 323 324 227 2 91 203 301 244 244 257 204 174 180 242 157 158 179 210 233 302 232 229 221 223 227 245 257 266 296 199 175
27 25 23 21 20 18 16 14 13 11 7 2 356 350 335 321 314 268 211 356 336 19 271 288 211 205 172 135 243 228 144 180 208 213 216 189 230 227 217 252 204 232 217 236 234 319 263
29 25 22 19 16 15 13 11 6 2 359 354 355 350 344 324 349 328 66 295 326 91 7 266 233 260 108 137 260 195 179 174 229 209 222 233 233 234 199 230 202 235 192 235 244 132 240
25 23 21 19 15 12 8 5 2 358 354 349 347 341 340 341 288 30 290 315 329 55 356 161 128 322 159 172 236 281 132 89 226 243 155 237 167 178 197 211 192 233 154 163 206 207 336
22 21 19 17 15 10 5 2 358 354 350 346 340 340 336 94 238 248 308 338 49 38 262 191 125 186 114 276 294 23 17 30 254 248 263 231 278 185 198 126 193 154 100 45 33 83 272
21 20 17 16 10 6 3 1 357 352 347 341 333 325 319 308 210 300 353 46 32 143 292 210 232 176 195 210 226 192 182 199 205 172 246 262 239 217 164 138 21 159 100 297 292 183 238
15 13 10 11 7 7 3 360 354 348 343 338 326 315 228 228 319 345 53 56 89 266 303 46 346 204 189 211 240 196 195 238 239 287 320 202 287 174 196 200 186 198 164 171 202 207 259
16 13 10 12 13 6 1 357 351 347 342 339 321 333 271 265 202 70 66 114 208 221 50 350 341 280 250 265 245 221 216 210 199 193 200 241 255 214 200 178 172 195 213 207 291 168 297
11 8 8 12 7 3 1 358 353 348 343 339 340 331 300 322 126 66 72 243 255 332 319 333 239 238 280 298 342 335 260 233 232 205 204 234 276 253 245 165 241 158 168 104 197 213 227
7 15 12 13 9 3 360 0 354 351 346 334 1 28 269 327 64 58 180 233 288 288 285 289 299 280 270 294 295 289 246 303 288 322 242 235 210 255 134 226 188 189 218 219 176 167 190
22 12 7 9 8 6 4 3 358 353 353 22 345 44 282 44 48 231 204 254 347 339 336 315 294 275 267 269 273 272 277 258 357 354 313 275 235 245 237 213 202 231 225 206 199 252 246
10 7 6 9 7 3 3 0 357 354 10 333 348 281 310 75 86 311 310 315 312 308 358 343 301 349 335 323 312 309 322 356 36 20 2 339 309 276 255 310 312 221 230 225 238 87 232
4 7 5 6 4 1 359 358 354 348 354 29 3 6 334 22 334 1 347 283 325 332 324 326 305 310 328 310 297 289 306 312 328 327 352 327 255 269 279 262 198 197 217 221 214 233 246
1 5 2 2 357 356 358 357 356 345 338 52 26 16 313 331 340 330 307 298 310 317 297 325 324 355 356 325 307 289 309 305 307 310 15 32 292 315 318 318 320 309 235 218 215 227 230
357 355 2 0 1 1 359 356 355 350 337 54 62 20 355 291 301 330 323 311 302 344 353 326 331 324 330 313 314 328 345 333 291 279 309 211 271 299 287 298 317 314 303 294 229 233 239
350 352 356 356 354 354 358 359 356 359 9 22 340 349 308 228 295 321 243 328 323 328 308 319 313 316 312 306 301 288 279 264 244 266 281 265 241 257 266 273 281 293 297 285 292 254 240
346 347 346 346 347 341 346 353 358 357 30 140 250 32 294 265 259 253 288 303 296 304 301 302 296 291 300 310 315 307 283 256 235 241 226 250 257 251 264 273 244 242 241 270 276 276 272
339 339 339 341 341 344 346 343 346 349 343 158 255 286 273 278 280 273 280 275 297 286 285 297 293 283 302 336 315 312 302 287 255 243 250 219 242 257 258 272 279 288 256 280 4 311 324
331 333 334 334 338 338 337 337 339 333 330 37 250 196 254 275 235 246 291 296 296 284 283 260 283 309 330 334 332 266 274 286 284 325 4 70 210 232 263 261 281 308 265 269 7 267 7
322 324 325 327 329 328 330 328 328 327 320 321 266 253 269 268 255 259 257 270 262 275 277 282 299 313 112 248 269 259 268 255 269 268 301 284 270 232 249 269 277 264 300 354 11 337 342
316 318 320 320 320 324 319 316 317 314 311 331 268 216 224 269 271 267 267 260 264 256 271 278 298 250 241 213 224 239 227 268 282 311 293 287 284 281 282 208 260 28 330 341 12 323 318
309 311 314 315 315 315 307 307 306 308 302 309 276 261 252 259 278 297 272 268 256 258 258 254 252 255 275 246 272 297 297 279 287 285 283 246 198 235 183 238 261 298 286 275 229 315 301